Location: Peterborough
(44.3000°N, 78.3330°W)
Time: 21:21:08

N. Korean satellite - Visible Passes

Search period start: 18 March 2018 00:00
Search period end: 28 March 2018 00:00
Orbit: 460 x 512 km, 97.2° (Epoch: 18 March)

Date Brightness Start Highest point End Pass type
(mag) Time Alt. Az. Time Alt. Az. Time Alt. Az.
19 Mar 10.7 06:42:34 10° ENE 06:43:29 11° E 06:44:24 10° ESE visible
20 Mar 9.9 20:01:54 10° SW 20:04:22 17° W 20:06:52 10° NW visible
23 Mar 10.7 06:41:18 10° E 06:41:40 10° E 06:42:03 10° E visible
24 Mar 9.9 19:59:57 10° SW 20:02:32 18° W 20:05:09 10° NW visible
